Home   Weather   Hofuf   Past weeks
Flag for Saudi Arabia

Past Weather in Hofuf, Saudi Arabia — Yesterday and Last 2 Weeks

Now
90 °F

Clear.


Feels Like: 86 °F
Forecast: 113 / 82 °F
Wind: 6 mph from Northwest

Location: Al Ahsa

Current Time: Jul 17, 2019 at 4:25:46 am

Latest Report: Jul 17, 2019 at 3:00 am


Visibility: 10 mi

Pressure: 29.47 "Hg

Humidity: 13%

Dew Point: 32 °F

Location of HofufLocation

Past Weather in Hofuf — Graph

°F

Hofuf Temperature Yesterday

Maximum temperature yesterday: 115 °F (at 3:00 pm)
Minimum temperature yesterday: 84 °F (at 5:00 am)
Average temperature yesterday: 100 °F

High & Low Weather Summary for the Past Weeks

 TemperatureHumidityPressure
High118 °F (Jul 6, 1:00 pm)62% (Jul 4, 1:00 am)29.59 "Hg (Jul 4, 1:00 am)
Low82 °F (Jul 15, 2:00 am)4% (Jul 6, 2:00 pm)29.36 "Hg (Jul 10, 3:00 pm)
Average101 °F12%29.47 "Hg
* Reported Jul 2 3:00 am — Jul 17 3:00 am, Hofuf. Weather by CustomWeather, © 2019

Note: Actual official high and low records may vary slightly from our data, if they occured in-between our weather recording intervals... More about our weather records

Advertising

Hofuf Weather History for the Previous 24 Hours

Scroll right to see more
 ConditionsComfort  
Time TempWeatherWind HumidityBarometerVisibility
3:00 am
Wed, Jul 17
90 °FClear.6 mph13%29.47 "Hg10 mi
2:00 am90 °FClear.7 mph15%29.47 "Hg10 mi
1:00 am91 °FClear.6 mph13%29.47 "Hg10 mi
12:00 am93 °FClear.6 mph12%29.47 "Hg4 mi
11:00 pm
Tue, Jul 16
95 °FClear.6 mph11%29.50 "Hg4 mi
10:00 pm99 °FClear.7 mph10%29.50 "Hg4 mi
9:00 pm102 °FClear.6 mph9%29.50 "Hg4 mi
8:00 pm106 °FDuststorm.10 mph8%29.47 "Hg2 mi
7:00 pm108 °FLow level haze.14 mph6%29.45 "Hg1 mi
6:00 pm109 °FLow level haze.15 mph5%29.45 "Hg1 mi
5:00 pm113 °FLow level haze.21 mph5%29.42 "Hg1 mi
4:00 pm113 °FLow level haze.23 mph5%29.42 "Hg1 mi
3:00 pm115 °FLow level haze.23 mph5%29.42 "Hg2 mi
2:00 pm113 °FLow level haze.21 mph5%29.45 "Hg3 mi
1:00 pm113 °FClear.24 mph5%29.45 "Hg4 mi
12:00 pm111 °FClear.23 mph6%29.47 "Hg4 mi
11:00 am108 °FSunny.18 mph8%29.47 "Hg10 mi
10:00 am106 °FSunny.21 mph9%29.50 "Hg10 mi
9:00 am102 °FSunny.20 mph10%29.50 "Hg10 mi
8:00 am97 °FSunny.15 mph11%29.50 "Hg10 mi
7:00 am90 °FSunny.8 mph13%29.50 "Hg10 mi
6:00 am84 °FSunny.6 mph18%29.47 "Hg10 mi
5:00 am84 °FClear.12 mph19%29.47 "Hg10 mi
4:00 am86 °FClear.10 mph20%29.45 "Hg10 mi
Weather by CustomWeather, © 2019

See weather overview